Regional Weather Roundup
Issued by NWS

Home | Current Version | Previous Version | Text Only | Print | Product List | Glossary On
Versions: 1 2 3 4 5 6 7 8 9 10 11 12 13 14 15 16 17 18 19 20 21 22 23 24 25 26 27 28 29 30 31 32 33 34 35 36 37 38 39 40 41 42 43 44 45 46 47 48 49 50
000
ASUS43 KMPX 201010
RWRMN
WEATHER ROUNDUP FOR MINNESOTA
NATIONAL WEATHER SERVICE TWIN CITIES/CHANHASSEN MN
400 AM CST SAT JAN 20 2018


NOTE: "FAIR" INDICATES FEW OR NO CLOUDS BELOW 12,000 FEET WITH NO
SIGNIFICANT WEATHER AND/OR OBSTRUCTIONS TO VISIBILITY. N/A MEANS
CURRENT SKY AND/OR WEATHER CONDITIONS ARE NOT AVAILABLE.

MNZ060>063-068>070-201100-
   Twin Cities Metro

CITY           SKY/WX    TMP DP  RH WIND       PRES   REMARKS
TWIN CITIES    MOCLDY    29  28  96 S3        29.77F
ST PAUL        FOG       24  24 100 CALM      29.79S VSB 1/4
CRYSTAL        FAIR      24  21  88 CALM      29.76S
BLAINE         FAIR      27  27 100 CALM      29.76F FOG
LAKEVILLE      FAIR      25  23  93 CALM      29.76F
EDEN PRAIRIE   FAIR      28  25  88 CALM      29.76F
SOUTH ST PAUL  FAIR      27  27  99 CALM      29.77F
LAKE ELMO      FOG       23  21  93 CALM      29.78F VSB 1/2
$$
MNZ001>005-007-008-013>017-022>024-027-028-201100-
   Northwest Minnesota

CITY           SKY/WX    TMP DP  RH WIND       PRES   REMARKS
BEMIDJI        FAIR      18  17  93 CALM      29.69R FOG
HALLOCK        FAIR      27  23  86 W5        29.70R WCI  21
ROSEAU         FAIR      27  21  80 W8        29.68R WCI  18
WARROAD        FAIR      28  25  86 W6        29.67S WCI  22
THIEF RVR FALL FAIR      23  22  96 W8        29.71R WCI  14
CROOKSTON      FAIR      21  19  93 NW7       29.72S WCI  13
FOSSTON        FAIR      16  14  93 S5        29.71S WCI   9
DETROIT LAKES  FOG       25  23  93 S3        29.74S VSB 3/4
MOORHEAD       FAIR      25  21  86 S3        29.76R
PARK RAPIDS    FOG       18  14  84 W5        29.72R VSB 1/2 WCI  11
MAHNOMEN       FAIR      19  17  93 SW6       29.72R WCI  11
$$
MNZ006-009>011-018-025>026-201100-
   North Central Minnesota

CITY           SKY/WX    TMP DP  RH WIND       PRES   REMARKS
BAUDETTE       FAIR      30  27  88 W5        29.66R WCI  25
FLAG ISLAND    CLOUDY    34  30  86 W6        29.65R WCI  29
INTL FALLS     CLOUDY    34  28  79 W9        29.65R WCI  27
WASKISH        FAIR      28  27  93 SW9       29.68S WCI  20
BIG FORK       FOG       25  23  93 CALM      29.68R VSB 1/4
LONGVILLE      FAIR      16  16 100 CALM      29.71S
GRAND RAPIDS   FAIR      26  24  92 CALM      29.71R
CRANE LAKE     CLOUDY    34  30  86 W3        29.68R
ORR            MOCLDY    34  27  75 W3        29.64S
COOK           CLOUDY    34  30  86 W5        29.67S WCI  30
WALKER         FAIR      24  23  95 SW5       29.70S WCI  19
$$
MNZ012-019>021-037-201100-
   Northeast Minnesota

CITY           SKY/WX    TMP DP  RH WIND       PRES   REMARKS
DULUTH         FAIR      30  28  92 NW8       29.68S WCI  22
ELY            CLOUDY    34  28  80 W9        29.65S WCI  26
HIBBING        FAIR      21  20  96 SW3       29.69R FOG
EVELETH        FAIR      28  25  89 SW5       29.70R WCI  22
DULUTH HARBOR  FAIR      30  27  86 SW9       29.73S WCI  22
TWO HARBORS    CLOUDY    37  30  75 W5        29.67R
SILVER BAY     CLOUDY    37  30  75 W5        29.66R
GRAND MARAIS     N/A     37  30  75 W6        29.63R
G MARAIS ARPRT CLOUDY    32  27  80 W12G18    29.59S WCI  23
$$
MNZ029>031-032-039>041-046>048-054>057-064-201100-
   West Central Minnesota

CITY           SKY/WX    TMP DP  RH WIND       PRES   REMARKS
FERGUS FALLS   FAIR      19  19 100 S3        29.77R FOG
MORRIS         CLOUDY    27  25  93 W5        29.77R WCI  21
ALEXANDRIA     FAIR      22  20  92 CALM      29.76S FOG
ELBOW LAKE     FAIR      23  23 100 SW5       29.77S FOG     WCI  17
WADENA         FAIR      21  21 100 SW3       29.74S
GLENWOOD       FAIR      27  27 100 W7        29.76F WCI  19
APPLETON       PTCLDY    27  25  93 SW7       29.78S WCI  19
BENSON         CLOUDY    25  21  86 CALM      29.80R
ORTONVILLE     PTCLDY    28  25  86 W6        29.79R WCI  22
MADISON        CLOUDY    34  28  80 W5        29.79S WCI  30
WILLMAR        FAIR      27  27 100 CALM      29.80S
$$
MNZ033>034-036-042>043-049>051-058-059-201100-
   Central Minnesota

CITY           SKY/WX    TMP DP  RH WIND       PRES   REMARKS
ST CLOUD       FOG       22  21  96 W5        29.76S VSB 1/4 WCI  16
SAUK CENTRE      N/A     26  25  94 W6        29.77S WCI  20
PAYNESVILLE    FAIR      26  26 100 CALM      29.78R
AITKIN         FOG       19  18  93 CALM      29.71R VSB 1
PINE RIVER     FAIR      18  16  93 CALM      29.77R
BRAINERD       FAIR      24  22  91 S5        29.75R FOG     WCI  18
STAPLES        FAIR      21  21 100 CALM      29.74S FOG
LONG PRAIRIE   FAIR      25  23  93 S3        29.77R
LITTLE FALLS   FAIR      19  14  79 CALM      29.77R
LITCHFIELD     FAIR      30  30 100 W3        29.78R
BUFFALO        FAIR      22  20  93 CALM      29.78S
MAPLE LAKE     FAIR      25  24  96 MISG      29.77S
HUTCHINSON     FAIR      26  26  97 SW3       29.80R
$$
MNZ037-044-045-052-053-201100-
   East Central Minnesota

CITY           SKY/WX    TMP DP  RH WIND       PRES   REMARKS
PRINCETON      FAIR      21  19  93 CALM      29.76R
MORA           FAIR      18  14  86 CALM      29.76S
CAMBRIDGE      FAIR      21  19  93 CALM      29.77R FOG
RUSH CITY      FAIR      25  24  95 CALM      29.76R
MOOSE LAKE     FAIR      21  19  93 SW6       29.72R WCI  14
HINCKLEY       FOG       18  16  93 CALM      29.75R VSB<1/4
CLOQUET        FAIR      28  27  93 W3        29.70F
MCGREGOR       FAIR      27  25  93 CALM      29.72R
$$
MNZ071>073-080-081-089-090-097-098-201100-
   Southwest Minnesota

CITY           SKY/WX    TMP DP  RH WIND       PRES   REMARKS
MONTEVIDEO     MOCLDY    30  27  86 W3        29.79R
GRANITE FALLS  PTCLDY    30  28  91 SW6       29.83R WCI  24
CANBY          CLOUDY    34  29  81 SW6       29.81R WCI  29
MARSHALL       PTCLDY    33  27  78 W8        29.81R WCI  26
REDWOOD FALLS  CLOUDY    31  28  89 W6        29.80R WCI  25
OLIVIA         CLOUDY    30  28  93 W5        29.78S WCI  25
PIPESTONE      CLEAR     30  27  86 CALM      29.80R
WINDOM         CLOUDY    34  18  51 CALM      29.80R
WORTHINGTON    CLOUDY    28  25  88 N9        29.80R WCI  19
JACKSON        PTCLDY    30  28  93 CALM      29.79S
TRACY          PTCLDY    35  29  79 W5        29.80S WCI  31
SLAYTON        CLOUDY    29  27  91 W8        29.81R WCI  21
$$
MNZ065>067-074>077-082>085-091>093-201100-
   South Central Minnesota

CITY           SKY/WX    TMP DP  RH WIND       PRES   REMARKS
MANKATO        FAIR      29  28  96 W3        29.80R
NEW ULM        CLOUDY    28  25  86 W6        29.80R WCI  22
ST JAMES       CLOUDY    28  27  93 CALM      29.81R
FAIRMONT       CLOUDY    32  28  85 NW6       29.80R WCI  26
FARIBAULT      FOG       23  21  93 CALM      29.78S VSB 1/4
OWATONNA       FAIR      25  25 100 CALM      29.76F
WASECA         FAIR      27  23  86 CALM      29.80R FOG
ALBERT LEA     FAIR      32  28  86 CALM      29.77S
$$
MNZ078>079-086>088-094>096-201100-
   Southeast Minnesota

CITY           SKY/WX    TMP DP  RH WIND       PRES   REMARKS
ROCHESTER      FAIR      31  29  92 NW6       29.76S WCI  25
RED WING       FAIR      25  21  86 CALM      29.78S FOG
STANTON        FAIR      22  20  93 CALM      29.77S
DODGE CENTER   FAIR      27  25  93 CALM      29.76F
WINONA           N/A     27  27 100 CALM      29.77R FOG
AUSTIN         FAIR      30  27  86 CALM      29.76F
PRESTON        FAIR      32  28  88 NW5       29.77S WCI  27
$$
ABBREVIATIONS USED IN REMARKS
   TC - TEMPERATURES IN CELSIUS
  WCI - WIND CHILL INDEX
   HX - HEAT INDEX
  VSB - VISIBILITY
$$



USA.gov is the U.S. government's official web portal to all federal, state and local government web resources and services.